Probability
21 23 26 29 28 27 26 26 25 23 22 21 19 17 16 16 15 13 11 9 9 9 10 10 10 10 9 7 6 6 5 4 3 3 3 2 1 1 1 0 0 0 0
20 22 25 28 29 27 25 24 24 24 24 22 20 17 15 15 14 12 10 9 9 10 10 9 9 9 8 6 6 5 4 3 3 3 3 3 2 2 2 1 0 0 1
19 22 26 28 27 24 22 21 21 23 24 24 22 18 14 12 11 11 10 9 10 10 9 8 7 7 6 5 3 3 3 3 3 3 3 2 2 2 2 1 0 1 2
20 23 28 29 25 20 18 18 19 20 22 23 21 17 14 12 11 10 10 9 9 9 8 7 6 6 5 3 2 1 1 1 2 2 2 1 1 1 1 1 0 1 2
23 25 29 30 26 21 20 20 19 18 19 19 17 14 13 12 12 11 10 9 8 7 7 6 6 5 4 3 2 1 0 0 1 1 1 0 0 0 0 0 0 0 1
26 29 31 31 28 26 26 24 20 18 17 16 13 12 11 11 11 10 10 9 8 7 6 6 6 5 5 5 3 1 0 0 0 0 0 0 0 0 0 0 0 0 0
30 32 34 33 31 31 32 28 23 19 17 14 11 10 10 10 10 10 9 9 8 7 6 6 6 6 7 7 4 2 1 1 1 0 0 0 0 0 0 0 0 0 0
32 33 35 34 33 35 35 31 26 21 17 13 11 11 11 11 10 9 8 8 7 7 6 6 7 7 8 8 6 3 2 2 1 0 0 0 0 0 0 0 1 1 1
33 34 35 34 34 35 34 31 27 22 17 14 13 12 11 10 10 9 8 8 7 7 7 7 7 7 8 7 7 5 2 1 0 0 0 0 0 0 1 1 2 2 2
31 33 35 34 32 31 30 28 25 21 17 15 14 13 10 9 8 9 9 9 9 8 8 8 8 8 8 8 8 7 3 1 0 1 1 1 1 1 2 3 3 3 3
26 29 32 31 29 27 26 24 22 18 16 16 15 13 11 9 8 8 9 9 10 9 9 9 9 9 9 9 9 8 5 2 1 1 2 2 2 3 3 3 3 3 3
22 25 28 29 29 27 24 22 19 16 15 16 16 15 13 11 9 8 7 9 9 9 9 9 9 9 9 9 9 7 6 4 2 2 3 3 3 4 3 3 3 3 3
18 20 24 27 28 28 25 21 18 16 16 16 16 15 13 12 10 8 7 7 8 8 8 8 8 8 8 8 8 7 6 6 4 3 3 3 4 5 5 5 5 5 4
18 19 21 23 25 26 23 19 16 14 14 14 14 14 13 11 10 9 7 6 7 8 8 8 8 8 8 8 7 6 6 6 5 4 3 4 5 6 8 8 8 7 6
20 19 18 19 22 24 22 17 13 12 13 12 11 11 10 9 10 9 7 6 6 7 9 9 9 9 8 7 7 6 6 6 6 5 5 6 6 7 9 10 9 8 7
18 18 17 18 20 22 19 15 11 11 12 11 9 8 8 8 9 9 7 6 6 6 8 10 10 10 9 7 6 6 6 6 7 7 7 7 7 8 9 8 7 6 5
17 16 17 18 18 17 14 11 10 10 10 9 8 7 6 7 8 9 8 7 7 8 8 9 10 9 8 6 5 6 6 6 7 7 7 7 7 8 7 6 3 2 2
13 13 14 14 13 11 9 9 9 10 9 8 7 7 7 7 8 9 9 10 10 10 10 9 8 6 5 3 3 4 6 7 7 6 6 6 7 7 6 3 1 0 0
8 9 10 10 8 7 8 9 9 9 9 8 7 7 7 7 7 8 10 12 13 12 12 11 8 5 3 1 1 4 7 8 7 6 6 6 6 5 4 2 1 0 0
6 8 9 9 8 7 8 9 9 8 9 9 8 8 8 6 6 7 10 12 13 13 13 12 10 7 4 2 1 4 6 7 6 6 6 6 5 3 2 1 1 0 0
8 10 11 10 9 7 8 9 7 6 7 9 9 9 7 4 4 6 9 11 13 13 13 13 11 9 6 3 3 3 4 4 4 4 4 3 3 1 0 0 0 0 0
11 12 12 10 9 7 7 7 6 5 6 8 9 8 5 4 4 6 8 11 13 13 13 13 12 10 7 4 3 3 3 3 3 3 2 1 1 0 0 0 0 0 0
12 12 12 11 10 9 7 6 6 6 7 7 8 7 5 4 4 5 7 9 11 12 13 13 12 10 7 5 3 3 2 2 2 2 1 0 0 0 0 0 0 0 0
11 11 12 11 11 9 7 7 7 7 7 6 6 5 4 3 3 3 4 5 7 9 10 10 9 8 6 5 4 3 2 1 1 1 0 0 0 0 0 0 0 0 0
8 10 11 11 10 9 8 7 6 5 5 4 3 2 2 2 2 1 1 1 2 4 5 5 5 4 4 4 3 2 2 1 0 0 0 0 0 0 0 0 0 0 0
7 8 10 10 9 9 9 7 5 4 4 3 1 1 1 2 2 2 1 0 0 1 1 1 2 3 3 3 2 1 1 1 0 0 0 0 0 0 0 0 0 0 0
Wind_Speed
8 8 9 9 8 7 7 6 6 5 5 4 3 3 2 1 1 1 2 3 3 3 3 2 1 2 2 2 1 1 1 1 1 1 1 2 2 2 2 2 2 4 4
7 8 8 9 8 8 7 6 6 6 5 4 3 3 3 2 2 1 1 2 3 3 3 3 2 2 1 1 1 1 1 1 1 2 1 1 3 2 2 1 2 3 3
13 11 10 9 9 8 8 7 6 6 5 5 3 3 2 2 1 1 1 1 2 3 2 2 2 2 2 2 2 2 2 1 1 1 3 2 2 2 2 1 2 2 2
12 12 12 11 10 9 8 7 7 6 5 5 5 5 4 3 3 2 1 1 2 2 2 2 2 2 2 2 2 2 2 2 1 1 1 2 2 2 1 2 2 1 2
13 13 13 12 11 9 8 7 6 5 5 5 5 5 3 3 2 2 2 1 1 1 2 2 2 2 2 2 2 2 2 2 2 1 1 0 0 1 2 1 2 2 2
11 11 10 10 8 8 7 7 6 5 5 5 5 5 5 4 4 3 2 1 1 1 1 2 2 2 2 2 2 2 2 1 2 2 1 2 1 1 2 2 2 1 2
11 11 11 10 10 10 9 8 8 6 5 5 5 5 5 5 5 4 4 3 1 1 2 2 2 2 2 1 1 1 1 1 2 2 1 1 2 2 2 2 1 1 2
9 11 11 10 10 10 10 9 8 7 6 6 5 4 4 3 3 3 3 3 3 2 2 2 1 1 2 1 1 1 1 1 1 1 1 1 1 1 2 2 2 0 1
9 10 9 9 9 9 9 10 9 7 6 6 5 4 4 3 3 3 3 2 2 2 2 2 2 2 2 2 1 1 1 1 1 1 1 1 1 1 1 1 2 3 1
8 9 9 9 8 8 7 7 8 8 7 6 5 5 4 4 4 3 3 3 2 2 2 2 2 2 1 1 2 1 1 1 1 1 1 0 0 0 1 1 1 2 3
7 8 8 8 7 7 7 6 6 5 5 6 5 5 4 4 4 3 3 3 2 3 3 2 2 2 2 2 2 2 2 2 1 1 2 1 1 0 0 1 1 1 2
7 6 6 7 7 7 6 6 6 5 5 5 5 5 4 4 4 3 3 3 2 2 3 2 2 2 2 2 2 2 2 2 2 2 2 1 1 1 0 1 0 0 1
6 5 5 6 6 6 5 5 5 5 5 5 5 5 4 4 4 4 3 3 2 2 2 3 3 2 2 2 2 2 2 2 3 3 3 2 2 1 1 1 1 1 0
7 6 5 4 5 5 5 5 4 4 5 4 4 4 5 5 4 4 3 3 3 3 2 3 3 2 2 2 2 2 1 1 2 2 2 2 2 3 2 1 1 1 0
6 6 4 3 3 4 4 4 4 4 4 4 4 4 4 4 4 4 4 3 3 3 3 2 2 2 1 2 2 2 2 1 1 1 2 3 3 3 3 2 2 1 1
5 4 4 4 4 4 4 3 3 3 4 4 5 4 4 4 4 4 4 3 3 2 2 3 2 2 2 2 3 2 2 2 2 2 2 2 3 3 4 3 3 4 3
4 3 4 4 4 4 4 3 3 3 3 3 4 4 5 5 4 5 4 4 4 3 3 3 3 3 3 4 3 3 2 2 3 3 2 2 2 2 2 2 2 2 3
4 3 2 2 2 2 2 3 3 4 3 3 3 4 4 5 4 4 4 4 4 4 4 3 3 3 3 3 3 3 2 1 1 2 2 2 2 3 3 2 2 2 2
4 4 3 3 3 2 2 3 2 3 3 3 3 4 5 5 4 5 5 4 4 4 3 3 3 3 2 2 3 3 1 1 1 1 2 3 3 3 4 3 2 1 2
3 4 3 3 3 2 2 3 2 2 2 3 3 3 4 5 6 6 5 3 3 4 4 3 3 3 2 2 3 4 2 1 1 1 1 2 3 3 4 3 3 2 3
3 3 4 3 2 1 2 3 2 1 2 2 2 2 2 4 5 4 4 3 3 4 3 3 2 3 3 3 3 3 2 2 1 1 1 2 3 3 3 3 3 4 3
3 3 3 2 1 1 2 2 1 1 1 1 1 1 1 2 3 4 3 3 3 3 3 2 1 1 1 2 2 3 3 3 2 2 2 2 4 4 3 3 3 3 2
3 2 3 2 1 1 2 2 1 0 1 1 1 1 1 1 2 3 3 3 3 3 2 2 2 1 1 1 1 2 3 3 2 2 4 4 4 3 2 3 2 2 1
2 2 3 3 1 0 1 1 1 1 2 2 1 1 1 1 1 1 2 2 2 2 2 3 3 2 1 1 1 1 1 1 0 1 1 2 1 1 1 1 1 1 2
1 2 3 3 2 1 1 0 1 2 2 1 1 1 1 1 1 1 1 1 2 3 4 3 3 3 3 4 4 3 2 2 2 1 1 1 1 1 1 1 1 1 1
2 2 2 2 2 2 1 0 0 2 2 1 1 1 1 1 1 2 2 4 2 1 2 4 4 3 5 5 5 4 3 3 3 3 1 1 1 1 1 1 1 1 1
Wind_Direction
161 152 149 149 144 140 137 142 141 146 141 137 138 138 147 148 142 152 151 156 158 151 148 150 143 139 148 171 172 158 157 177 146 105 342 320 287 242 230 219 199 204 204
150 153 152 154 153 152 147 149 151 153 152 154 156 157 155 157 156 149 139 156 156 162 158 149 158 159 150 158 166 146 138 185 162 143 121 337 336 322 256 227 212 212 202
164 165 161 161 158 159 159 157 159 156 157 152 133 114 91 77 78 98 143 175 160 164 160 159 163 171 169 187 197 176 156 182 227 164 152 161 225 294 319 271 238 212 203
169 170 167 166 169 171 163 155 155 154 153 144 141 146 151 167 192 183 179 182 169 166 164 158 161 171 177 195 212 188 174 158 199 256 227 182 164 158 312 325 306 251 218
173 174 173 171 170 168 161 156 152 151 150 144 150 153 157 171 160 136 139 166 183 176 169 163 161 172 184 191 191 175 176 174 179 184 192 180 49 140 151 274 311 319 276
167 171 169 160 160 158 151 148 151 155 155 150 148 153 155 154 147 151 159 175 193 195 180 169 173 180 178 183 184 174 172 184 179 172 157 155 159 175 166 199 246 270 281
164 162 161 162 165 161 160 158 160 161 159 151 153 161 159 157 165 173 175 171 177 205 211 182 183 185 183 174 165 156 166 179 172 179 183 181 185 174 164 157 210 257 293
164 164 166 166 165 165 163 163 165 165 164 159 160 161 156 157 172 180 178 181 189 201 195 177 177 180 178 171 159 165 197 178 183 194 187 186 204 174 167 169 164 158 326
167 164 161 162 163 164 166 168 165 161 163 163 158 158 157 160 170 173 171 178 187 190 183 180 178 177 175 175 165 185 208 177 188 195 180 189 220 172 166 158 160 158 188
166 163 163 166 164 162 161 163 165 166 166 166 170 170 173 171 166 157 161 173 185 183 176 184 186 185 188 179 169 199 203 167 195 182 161 188 213 97 104 130 142 157 170
160 160 161 160 155 150 152 157 161 160 165 172 172 168 174 170 163 166 175 178 183 182 181 186 185 188 198 193 180 190 183 182 202 189 166 190 163 137 107 94 91 120 159
139 142 143 143 142 147 153 161 164 165 171 174 172 175 175 167 166 177 186 180 183 192 191 183 182 192 196 190 187 201 191 185 192 195 175 195 159 154 196 108 100 206 175
120 122 121 137 147 150 155 161 165 170 174 172 169 171 171 167 175 185 187 183 186 199 193 177 180 188 189 193 204 198 194 196 201 195 186 196 160 178 209 174 195 236 213
129 129 134 148 153 158 159 160 169 172 174 172 168 171 177 179 181 183 181 183 185 194 197 189 188 192 195 203 209 188 172 178 193 194 186 186 180 193 200 199 209 190 143
130 137 145 149 151 151 157 161 170 172 169 166 170 181 180 177 176 179 181 181 183 196 197 177 185 190 185 200 190 182 173 175 202 216 198 195 193 199 206 205 202 184 177
146 147 144 149 159 164 165 162 168 167 155 162 177 179 173 174 180 186 182 184 190 198 181 169 175 188 211 200 186 177 184 189 195 216 231 222 218 220 221 219 207 193 191
145 147 151 168 174 178 164 167 169 153 151 164 175 178 179 183 191 189 182 192 197 191 189 187 180 196 222 211 204 196 182 193 203 206 220 237 237 226 220 226 233 234 216
143 140 151 165 151 143 144 157 153 147 160 173 183 187 186 190 192 186 187 199 198 190 192 194 193 198 229 218 205 191 162 185 214 217 214 217 239 238 214 207 222 248 247
145 137 138 134 118 123 130 118 136 151 158 176 193 195 191 191 191 193 196 196 190 190 191 184 186 187 223 221 192 161 138 159 225 227 208 206 221 228 196 178 196 261 286
135 133 123 102 99 107 109 106 120 139 189 207 206 198 192 191 193 194 191 187 180 186 178 174 180 183 204 211 176 159 145 155 224 272 238 213 200 193 172 177 186 223 258
132 127 121 116 139 139 117 118 134 198 231 226 204 189 190 188 182 177 174 168 167 164 164 167 180 187 195 201 186 171 162 178 187 203 246 250 215 205 199 193 201 223 236
116 124 125 132 151 129 113 107 158 249 258 137 119 136 161 175 159 155 163 164 162 161 168 165 177 224 202 178 194 183 192 192 184 210 232 242 233 230 226 223 223 225 209
145 149 143 136 122 112 127 141 236 223 96 86 92 120 123 142 143 147 160 158 160 172 184 181 193 218 216 141 156 181 195 190 189 224 235 243 240 233 230 225 218 198 162
155 147 135 131 131 148 133 183 199 125 108 101 90 106 125 122 101 120 144 155 171 180 181 182 192 198 182 178 202 217 206 190 167 283 265 241 219 193 193 234 247 210 191
159 144 149 161 170 157 153 197 140 113 109 115 112 109 127 140 100 88 119 171 196 198 189 193 191 187 205 221 205 193 205 208 208 155 47 39 31 7 344 313 277 256 219
158 152 149 162 177 164 177 236 154 128 122 112 106 113 114 114 111 99 41 22 39 61 146 187 194 207 205 195 194 195 195 185 167 137 140 210 214 219 230 239 265 265 243